Tracking 19854 objects as of 23-Sep-2019
HD Live streaming from Space Station
objects crossing your sky now

FENGYUN 1C DEB

Track FENGYUN 1C DEB now!
10-day predictions


NORAD ID: 30680
Int'l Code: 1999-025AQN
Perigee: 830.1 km
Apogee: 1,395.8 km
Inclination: 99.5 °
Period: 107.4 minutes
Semi major axis: 7483 km
RCS: 0.0144 m2 (small)
Launch date: May 10, 1999
Source: People's Republic of China (PRC)
Launch site: Taiyaun Space Center, China (TSC)

Note: This is SATELLITE DEBRIS
aabbcc
Your satellite tracking list
Your tracking list is empty




NASA's NSSDC Master Catalog

Two Line Element Set (TLE):
1 30680U 99025AQN 19265.14594841 -.00000622  00000-0 -69319-3 0  9994
2 30680  99.5278  19.3207 0377914  49.7445 313.6097 13.40930829617388
Source of the keplerian elements: AFSPC